CW5917 Weather Reports


Display with metric or nautical units.
time (UTC)temp
F
wind
direction
speed
MPH
gust
MPH
rain 1hr
in
rain 24hr
in
rain mn
in
humidity
%
barometer
mb
20260510231036 62 316 6.0 10.0 0.00 0.00 0.00 34 1018.9
20260510230524 62 292 3.0 10.0 0.00 0.00 0.00 33 1019.0
20260510230038 62 332 6.0 12.0 0.00 0.00 0.00 33 1019.1
20260510225548 62 300 8.0 13.0 0.00 0.00 0.00 32 1019.1
20260510225039 62 314 9.0 13.0 0.00 0.00 0.00 33 1019.1
20260510224523 62 313 6.0 11.0 0.00 0.00 0.00 34 1019.2
20260510224029 62 331 4.0 9.0 0.00 0.00 0.00 33 1019.2
20260510223611 62 327 3.0 9.0 0.00 0.00 0.00 33 1019.3
20260510223048 62 319 5.0 9.0 0.00 0.00 0.00 33 1019.2
20260510222521 62 290 5.0 9.0 0.00 0.00 0.00 33 1019.2
20260510222020 62 292 5.0 14.0 0.00 0.00 0.00 33 1019.2
20260510221532 62 250 8.0 14.0 0.00 0.00 0.00 32 1019.3
20260510221037 62 299 7.0 18.0 0.00 0.00 0.00 34 1019.2
20260510220517 62 269 10.0 18.0 0.00 0.00 0.00 31 1019.2
20260510220100 62 306 9.0 16.0 0.00 0.00 0.00 32 1019.2
20260510215533 62 20 4.0 12.0 0.00 0.00 0.00 35 1019.1
20260510215020 62 340 5.0 15.0 0.00 0.00 0.00 33 1019.2
20260510214524 62 256 7.0 12.0 0.00 0.00 0.00 32 1019.1
20260510214020 62 250 6.0 12.0 0.00 0.00 0.00 32 1019.1
20260510213535 62 320 8.0 13.0 0.00 0.00 0.00 31 1019.1
20260510213019 62 327 8.0 13.0 0.00 0.00 0.00 31 1019.1
20260510212553 62 315 7.0 13.0 0.00 0.00 0.00 32 1019.2
20260510212045 62 321 9.0 13.0 0.00 0.00 0.00 32 1019.0
20260510211540 62 323 6.0 13.0 0.00 0.00 0.00 32 1019.1
20260510211036 62 321 6.0 14.0 0.00 0.00 0.00 32 1019.1
20260510210528 62 324 8.0 12.0 0.00 0.00 0.00 34 1019.1
20260510210027 61 285 5.0 14.0 0.00 0.00 0.00 32 1019.2
20260510205520 61 309 10.0 14.0 0.00 0.00 0.00 33 1019.3
20260510205033 61 308 6.0 13.0 0.00 0.00 0.00 33 1019.3
20260510204539 61 314 8.0 15.0 0.00 0.00 0.00 34 1019.4
20260510204055 61 286 8.0 16.0 0.00 0.00 0.00 33 1019.3
20260510203535 62 288 10.0 16.0 0.00 0.00 0.00 31 1019.3
20260510203046 62 292 8.0 16.0 0.00 0.00 0.00 31 1019.3
20260510202533 62 311 10.0 20.0 0.00 0.00 0.00 30 1019.4
20260510202025 62 299 14.0 20.0 0.00 0.00 0.00 32 1019.3
20260510201520 62 286 9.0 17.0 0.00 0.00 0.00 32 1019.4
20260510201033 62 296 7.0 14.0 0.00 0.00 0.00 35 1019.3
20260510200523 61 300 10.0 19.0 0.00 0.00 0.00 33 1019.4
20260510200034 62 313 13.0 19.0 0.00 0.00 0.00 31 1019.4
20260510195525 62 339 9.0 17.0 0.00 0.00 0.00 32 1019.5
20260510195037 62 303 12.0 21.0 0.00 0.00 0.00 32 1019.4
20260510194524 62 301 14.0 20.0 0.00 0.00 0.00 32 1019.5
20260510194025 61 300 10.0 16.0 0.00 0.00 0.00 32 1019.6
20260510193530 61 267 7.0 14.0 0.00 0.00 0.00 32 1019.6
20260510193035 62 342 10.0 20.0 0.00 0.00 0.00 32 1019.5
20260510192547 62 264 11.0 20.0 0.00 0.00 0.00 31 1019.5
20260510192018 62 288 5.0 21.0 0.00 0.00 0.00 32 1019.6
20260510191538 62 281 17.0 21.0 0.00 0.00 0.00 30 1019.7
20260510191047 63 268 7.0 15.0 0.00 0.00 0.00 31 1019.6
20260510190522 63 283 7.0 16.0 0.00 0.00 0.00 31 1019.6
20260510190029 63 292 9.0 18.0 0.00 0.00 0.00 30 1019.6
20260510185537 63 330 11.0 18.0 0.00 0.00 0.00 33 1019.5
20260510185024 63 329 13.0 17.0 0.00 0.00 0.00 30 1019.5
20260510184528 63 234 10.0 18.0 0.00 0.00 0.00 29 1019.4
20260510184021 63 329 12.0 18.0 0.00 0.00 0.00 28 1019.5
20260510183542 64 301 8.0 16.0 0.00 0.00 0.00 30 1019.5
20260510183037 62 298 9.0 14.0 0.00 0.00 0.00 36 1019.4
20260510182538 61 304 8.0 19.0 0.00 0.00 0.00 31 1019.5
20260510182036 61 314 13.0 21.0 0.00 0.00 0.00 31 1019.6
20260510181527 61 303 9.0 20.0 0.00 0.00 0.00 31 1019.6
20260510181020 62 306 11.0 24.0 0.00 0.00 0.00 30 1019.7
20260510180522 62 323 14.0 24.0 0.00 0.00 0.00 31 1019.6
20260510180029 61 306 7.0 13.0 0.00 0.00 0.00 34 1019.6
20260510175032 60 287 11.0 20.0 0.00 0.00 0.00 31 1019.8
20260510174524 61 226 12.0 20.0 0.00 0.00 0.00 31 1019.8
20260510172523 62 335 5.0 20.0 0.00 0.00 0.00 31 1019.5
20260510172027 61 313 10.0 20.0 0.00 0.00 0.00 32 1019.7
20260510171524 61 293 6.0 13.0 0.00 0.00 0.00 32 1019.6
20260510171024 61 321 8.0 19.0 0.00 0.00 0.00 30 1019.6
20260510170552 61 323 8.0 15.0 0.00 0.00 0.00 31 1019.4
20260510170037 61 340 5.0 15.0 0.00 0.00 0.00 32 1019.6
20260510165527 62 324 7.0 15.0 0.00 0.00 0.00 30 1019.6
20260510165030 62 312 6.0 17.0 0.00 0.00 0.00 33 1019.4
20260510164531 61 292 8.0 17.0 0.00 0.00 0.00 32 1019.7
20260510164057 61 301 12.0 18.0 0.00 0.00 0.00 31 1019.6
20260510163613 61 302 11.0 18.0 0.00 0.00 0.00 31 1019.6
20260510163020 60 275 7.0 17.0 0.00 0.00 0.00 32 1019.4
20260510162533 60 240 9.0 20.0 0.00 0.00 0.00 29 1019.4
20260510162058 60 316 13.0 20.0 0.00 0.00 0.00 30 1019.4
20260510161529 60 288 12.0 20.0 0.00 0.00 0.00 28 1019.3
20260510161041 60 313 12.0 20.0 0.00 0.00 0.00 31 1019.2
20260510160534 61 306 11.0 21.0 0.00 0.00 0.00 29 1019.2
20260510160033 61 284 12.0 21.0 0.00 0.00 0.00 34 1019.2
20260510155535 60 309 8.0 16.0 0.00 0.00 0.00 37 1019.3
20260510155018 60 330 6.0 19.0 0.00 0.00 0.00 34 1019.3
20260510154525 59 300 12.0 19.0 0.00 0.00 0.00 32 1019.3
20260510154033 59 330 11.0 26.0 0.00 0.00 0.00 33 1019.3
20260510153537 59 302 17.0 26.0 0.00 0.00 0.00 32 1019.1
20260510153018 59 322 11.0 19.0 0.00 0.00 0.00 34 1019.2
20260510152551 59 286 10.0 19.0 0.00 0.00 0.00 33 1019.2
20260510152027 59 313 11.0 21.0 0.00 0.00 0.00 34 1019.3
20260510151519 59 288 13.0 21.0 0.00 0.00 0.00 32 1019.2
20260510151036 59 294 10.0 20.0 0.00 0.00 0.00 33 1019.2
20260510150531 59 290 8.0 19.0 0.00 0.00 0.00 34 1019.0
20260510150056 59 289 12.0 19.0 0.00 0.00 0.00 32 1019.1
20260510145523 59 312 8.0 15.0 0.00 0.00 0.00 36 1019.1
20260510145037 59 311 9.0 15.0 0.00 0.00 0.00 35 1019.2
20260510144534 58 319 6.0 12.0 0.00 0.00 0.00 37 1019.1
20260510144035 58 306 6.0 11.0 0.00 0.00 0.00 37 1019.1
20260510143523 58 322 8.0 12.0 0.00 0.00 0.00 35 1019.1
20260510143024 58 292 5.0 11.0 0.00 0.00 0.00 40 1019.1
20260510142527 57 317 4.0 13.0 0.00 0.00 0.00 40 1019.1
20260510142055 57 307 6.0 9.0 0.00 0.00 0.00 40 1019.1
20260510141542 57 313 2.0 8.0 0.00 0.00 0.00 40 1019.2
20260510141036 57 236 3.0 9.0 0.00 0.00 0.00 46 1019.1
20260510140555 56 252 5.0 11.0 0.00 0.00 0.00 42 1019.0
20260510140022 56 220 8.0 12.0 0.00 0.00 0.00 45 1019.0
20260510135535 55 244 7.0 10.0 0.00 0.00 0.00 45 1019.0
20260510135026 55 208 3.0 8.0 0.00 0.00 0.00 48 1019.0
20260510134521 54 195 5.0 8.0 0.00 0.00 0.00 47 1019.0
20260510134028 54 221 5.0 9.0 0.00 0.00 0.00 48 1018.9
20260510133526 54 255 5.0 10.0 0.00 0.00 0.00 49 1019.0
20260510133034 53 234 7.0 10.0 0.00 0.00 0.00 49 1018.9
20260510132527 52 221 7.0 11.0 0.00 0.00 0.00 50 1018.9
20260510132019 52 213 6.0 14.0 0.00 0.00 0.00 51 1018.9
20260510131532 51 214 6.0 10.0 0.00 0.00 0.00 50 1018.8
20260510131030 51 207 7.0 10.0 0.00 0.00 0.00 50 1018.8
20260510130522 51 219 8.0 11.0 0.00 0.00 0.00 53 1018.7
20260510130023 51 219 6.0 10.0 0.00 0.00 0.00 56 1018.7
20260510125543 50 236 5.0 9.0 0.00 0.00 0.00 56 1018.6
20260510125021 49 239 5.0 8.0 0.00 0.00 0.00 60 1018.6
20260510124528 48 230 4.0 8.0 0.00 0.00 0.00 63 1018.6
20260510124045 47 237 4.0 7.0 0.00 0.00 0.00 69 1018.5
20260510123552 46 309 3.0 7.0 0.00 0.00 0.00 69 1018.4
20260510123034 45 227 3.0 5.0 0.00 0.00 0.00 70 1018.4
20260510122532 43 232 3.0 5.0 0.00 0.00 0.00 74 1018.4
20260510122020 42 198 3.0 4.0 0.00 0.00 0.00 79 1018.4
20260510121519 41 203 2.0 4.0 0.00 0.00 0.00 82 1018.4
20260510121031 40 310 1.0 2.0 0.00 0.00 0.00 83 1018.2
20260510120522 39 310 0.0 2.0 0.00 0.00 0.00 82 1018.2
20260510120028 38 310 1.0 2.0 0.00 0.00 0.00 83 1018.1
20260510115522 37 310 1.0 2.0 0.00 0.00 0.00 83 1018.0
20260510115038 37 310 1.0 3.0 0.00 0.00 0.00 82 1018.1
20260510114539 36 310 1.0 3.0 0.00 0.00 0.00 82 1018.0
20260510114036 36 310 2.0 3.0 0.00 0.00 0.00 81 1017.9
20260510113534 36 310 2.0 4.0 0.00 0.00 0.00 81 1018.0
20260510113049 35 310 2.0 4.0 0.00 0.00 0.00 81 1018.1
20260510112018 35 310 2.0 3.0 0.00 0.00 0.00 80 1018.1
20260510111517 35 310 2.0 3.0 0.00 0.00 0.00 79 1018.1
20260510111031 35 310 1.0 2.0 0.00 0.00 0.00 79 1017.9
20260510110523 35 310 0.0 0.0 0.00 0.00 0.00 78 1018.0
20260510110038 36 310 0.0 2.0 0.00 0.00 0.00 78 1017.8
20260510105542 36 310 1.0 3.0 0.00 0.00 0.00 78 1017.7
20260510105037 36 310 1.0 3.0 0.00 0.00 0.00 78 1017.7
20260510104606 36 310 1.0 4.0 0.00 0.00 0.00 78 1017.7
20260510104028 36 310 2.0 4.0 0.00 0.00 0.00 78 1017.6
20260510103518 36 310 3.0 4.0 0.00 0.00 0.00 77 1017.5
20260510103022 36 310 1.0 2.0 0.00 0.00 0.00 76 1017.5
20260510102535 36 310 0.0 3.0 0.00 0.00 0.00 76 1017.4
20260510102053 36 310 1.0 3.0 0.00 0.00 0.00 76 1017.3
20260510101518 37 310 2.0 3.0 0.00 0.00 0.00 75 1017.4
20260510101031 37 310 1.0 2.0 0.00 0.00 0.00 75 1017.2
20260510100538 37 310 1.0 2.0 0.00 0.00 0.00 74 1017.2
20260510100029 37 310 0.0 1.0 0.00 0.00 0.00 74 1017.0
20260510095528 37 310 0.0 0.0 0.00 0.00 0.00 73 1017.0
20260510095028 37 310 0.0 2.0 0.00 0.00 0.00 73 1017.0
20260510094528 37 310 2.0 2.0 0.00 0.00 0.00 72 1016.8
20260510094027 37 310 2.0 2.0 0.00 0.00 0.00 71 1016.8
20260510093529 37 310 0.0 3.0 0.00 0.00 0.00 70 1016.7
20260510093045 37 310 2.0 3.0 0.00 0.00 0.00 70 1016.7
20260510092522 38 310 1.0 2.0 0.00 0.00 0.00 69 1016.7
20260510092058 38 310 0.0 2.0 0.00 0.00 0.00 69 1016.7
20260510091533 38 310 0.0 2.0 0.00 0.00 0.00 69 1016.7
20260510091024 38 310 0.0 2.0 0.00 0.00 0.00 69 1016.7
20260510090520 38 310 0.0 2.0 0.00 0.00 0.00 69 1016.7
20260510090038 38 310 2.0 2.0 0.00 0.00 0.00 68 1016.4
20260510085532 39 310 1.0 2.0 0.00 0.00 0.00 68 1016.3
20260510085036 39 310 0.0 2.0 0.00 0.00 0.00 67 1016.2
20260510084525 39 310 1.0 3.0 0.00 0.00 0.00 67 1016.1
20260510084019 39 310 2.0 3.0 0.00 0.00 0.00 66 1016.2
20260510083526 39 310 0.0 1.0 0.00 0.00 0.00 65 1016.1
20260510083023 40 310 0.0 2.0 0.00 0.00 0.00 65 1015.9
20260510082601 40 310 0.0 2.0 0.00 0.00 0.00 65 1015.8
20260510082038 40 310 1.0 2.0 0.00 0.00 0.00 65 1015.8
20260510081533 40 310 1.0 5.0 0.00 0.00 0.00 64 1015.7
20260510081046 41 310 3.0 5.0 0.00 0.00 0.00 64 1015.6
20260510080518 41 5 0.0 1.0 0.00 0.00 0.00 61 1015.5
20260510080044 41 5 0.0 1.0 0.00 0.00 0.00 60 1015.5
20260510075527 41 5 0.0 1.0 0.00 0.00 0.00 60 1015.4
20260510075037 42 5 0.0 2.0 0.00 0.00 0.00 60 1015.5
20260510074521 42 5 1.0 2.0 0.00 0.00 0.00 60 1015.3
20260510074109 42 5 0.0 3.0 0.00 0.00 0.00 60 1015.3
20260510073525 42 5 2.0 3.0 0.00 0.00 0.00 60 1015.2
20260510073022 43 5 1.0 2.0 0.00 0.00 0.00 58 1015.2
20260510072520 43 5 1.0 2.0 0.00 0.00 0.00 56 1015.0
20260510072030 43 5 0.0 1.0 0.00 0.00 0.00 55 1015.0
20260510071623 44 5 0.0 2.0 0.00 0.00 0.00 55 1015.0
20260510071125 44 5 0.0 2.0 0.00 0.00 0.00 54 1015.0
20260510070611 44 5 0.0 2.0 0.00 0.00 0.00 54 1014.8
20260510070055 45 5 1.0 2.0 0.00 0.00 0.00 53 1014.7
20260510065519 45 5 1.0 3.0 0.00 0.00 0.00 53 1014.7
20260510065048 45 5 1.0 2.0 0.00 0.00 0.00 53 1014.8
20260510064604 45 5 0.0 2.0 0.00 0.00 0.00 52 1014.7
20260510064101 46 5 0.0 2.0 0.00 0.00 0.00 52 1014.7
20260510063527 46 5 0.0 2.0 0.00 0.00 0.00 52 1014.6
20260510063044 46 5 0.0 2.0 0.00 0.00 0.00 52 1014.7
20260510062547 46 5 1.0 2.0 0.00 0.00 0.00 52 1014.6
20260510062034 46 5 1.0 3.0 0.00 0.00 0.00 52 1014.6
20260510061535 46 5 1.0 3.0 0.00 0.00 0.00 52 1014.6
20260510061051 46 5 2.0 4.0 0.00 0.00 0.00 52 1014.5
20260510060533 46 5 2.0 5.0 0.00 0.00 0.00 52 1014.4
20260510060022 46 46 1.0 6.0 0.00 0.00 0.00 52 1014.4
20260510055540 46 19 3.0 6.0 0.00 0.00 0.00 52 1014.4
20260510055037 46 19 3.0 6.0 0.00 0.00 0.00 53 1014.3
20260510054530 46 340 3.0 6.0 0.00 0.00 0.00 54 1014.3
20260510054019 46 360 3.0 5.0 0.00 0.00 0.00 54 1014.2
20260510053533 46 334 2.0 4.0 0.00 0.00 0.00 53 1014.2
20260510053036 46 313 2.0 4.0 0.00 0.00 0.00 52 1014.0
20260510052537 47 313 1.0 2.0 0.00 0.00 0.00 51 1013.9
20260510052054 47 313 1.0 2.0 0.00 0.00 0.00 50 1013.6
20260510051530 47 313 1.0 3.0 0.00 0.00 0.00 49 1013.5
20260510051054 47 313 2.0 3.0 0.00 0.00 0.00 49 1013.4
20260510050541 48 313 2.0 4.0 0.00 0.00 0.00 48 1013.3
20260510050037 48 313 2.0 4.0 0.00 0.00 0.00 49 1013.1
20260510045550 48 335 1.0 4.0 0.00 0.00 0.00 48 1013.0
20260510045023 48 335 1.0 3.0 0.00 0.00 0.00 47 1013.1
20260510044533 49 335 2.0 4.0 0.00 0.00 0.00 48 1013.0
20260510044028 49 335 2.0 4.0 0.00 0.00 0.00 48 1013.0
20260510043549 49 335 2.0 3.0 0.00 0.00 0.00 48 1012.9
20260510043033 49 335 2.0 3.0 0.00 0.00 0.00 48 1012.9
20260510042519 49 308 2.0 5.0 0.00 0.00 0.00 47 1012.9
20260510042039 49 323 3.0 6.0 0.00 0.00 0.00 47 1012.8
20260510041541 50 317 3.0 6.0 0.00 0.00 0.00 47 1012.8
20260510041023 50 316 2.0 4.0 0.00 0.00 0.00 48 1012.8
20260510040531 50 329 2.0 4.0 0.00 0.00 0.00 48 1012.8
20260510040039 50 316 3.0 5.0 0.00 0.00 0.00 47 1012.7
20260510035541 50 317 3.0 8.0 0.00 0.00 0.00 47 1012.6
20260510035033 50 313 4.0 8.0 0.00 0.00 0.00 47 1012.6
20260510034522 50 306 3.0 5.0 0.00 0.00 0.00 47 1012.6
20260510034025 50 307 3.0 5.0 0.00 0.00 0.00 46 1012.6
20260510033530 51 304 3.0 5.0 0.00 0.00 0.00 46 1012.4
20260510033033 51 300 3.0 6.0 0.00 0.00 0.00 46 1012.5
20260510032529 51 300 4.0 6.0 0.00 0.00 0.00 45 1012.3
20260510032023 51 308 3.0 6.0 0.00 0.00 0.00 45 1012.2
20260510031556 52 311 3.0 6.0 0.00 0.00 0.00 44 1012.2
20260510031037 52 324 3.0 5.0 0.00 0.00 0.00 44 1012.1
20260510030539 52 286 3.0 5.0 0.00 0.00 0.00 43 1012.0
20260510030031 53 315 3.0 4.0 0.00 0.00 0.00 42 1011.9
20260510025519 53 314 2.0 4.0 0.00 0.00 0.00 42 1011.8
20260510025018 54 308 2.0 4.0 0.00 0.00 0.00 42 1011.7
20260510024118 54 308 2.0 5.0 0.00 0.00 0.00 41 1011.6
20260510023556 55 316 2.0 4.0 0.00 0.00 0.00 41 1011.4
20260510023034 55 316 2.0 5.0 0.00 0.00 0.00 40 1011.3
20260510022044 55 320 2.0 4.0 0.00 0.00 0.00 40 1011.1
20260510021540 56 308 3.0 8.0 0.00 0.00 0.00 39 1011.1
20260510021048 56 323 4.0 11.0 0.00 0.00 0.00 38 1010.9
20260510020523 56 304 5.0 11.0 0.00 0.00 0.00 38 1010.8
20260510020027 57 326 3.0 8.0 0.00 0.00 0.00 39 1010.8
20260510015532 57 316 2.0 8.0 0.00 0.00 0.00 39 1010.5
20260510015029 57 342 3.0 8.0 0.00 0.00 0.00 38 1010.4
20260510014526 57 322 3.0 5.0 0.00 0.00 0.00 38 1010.3
20260510014021 58 327 4.0 8.0 0.00 0.00 0.00 38 1010.2
20260510013535 58 309 4.0 10.0 0.00 0.00 0.00 37 1010.1
20260510013049 58 312 5.0 11.0 0.00 0.00 0.00 37 1009.9
20260510012521 58 303 5.0 11.0 0.00 0.00 0.00 37 1009.9
20260510012041 59 319 8.0 11.0 0.00 0.00 0.00 36 1009.8
20260510011557 59 330 6.0 13.0 0.00 0.00 0.00 37 1009.7
20260510011031 59 309 7.0 13.0 0.00 0.00 0.00 37 1009.5
20260510010058 60 329 6.0 13.0 0.00 0.00 0.00 37 1009.4
20260510005558 60 301 8.0 13.0 0.00 0.00 0.00 36 1009.3
20260510005039 60 340 5.0 11.0 0.00 0.00 0.00 36 1009.3
20260510004521 60 324 6.0 15.0 0.00 0.00 0.00 36 1009.1
20260510004032 60 314 10.0 15.0 0.00 0.00 0.00 36 1009.0
20260510003029 61 302 7.0 12.0 0.00 0.00 0.00 37 1008.8
20260510002537 61 318 7.0 13.0 0.00 0.00 0.00 37 1008.7
20260510002025 61 300 10.0 15.0 0.00 0.00 0.00 36 1008.5
20260510001538 61 318 9.0 15.0 0.00 0.00 0.00 37 1008.5
20260510001028 62 302 9.0 19.0 0.00 0.00 0.00 37 1008.4
20260510000536 62 302 10.0 15.0 0.00 0.00 0.00 38 1008.4
20260510000032 62 317 10.0 17.0 0.00 0.00 0.00 37 1008.3
20260509235527 63 301 11.0 17.0 0.00 0.00 0.00 37 1008.3
20260509235021 63 327 7.0 17.0 0.00 0.00 0.00 38 1008.2
20260509234536 63 304 11.0 16.0 0.00 0.00 0.00 37 1008.1
20260509234019 63 300 10.0 18.0 0.00 0.00 0.00 38 1008.0
20260509233532 64 327 13.0 18.0 0.00 0.00 0.00 37 1008.0
20260509233028 64 279 10.0 24.0 0.00 0.00 0.00 38 1008.0
20260509232521 64 304 13.0 24.0 0.00 0.00 0.00 37 1007.9
20260509232034 64 312 11.0 17.0 0.00 0.00 0.00 38 1007.9
20260509231534 64 314 11.0 18.0 0.00 0.00 0.00 38 1007.8